| time (UTC) | temp F | wind direction | speed knots | gust knots | rain 1hr in | rain 24hr in | rain mn in | humidity % | barometer mb |
| 20260505031528 | 63 | 336 | 0.0 | 2.6 | 0.00 | 0.01 | 0.01 | 72 | 1007.5 |
| 20260505030027 | 65 | 338 | 0.0 | 0.9 | 0.00 | 0.01 | 0.01 | 65 | 1007.6 |
| 20260505024523 | 65 | 342 | 0.0 | 4.3 | 0.00 | 0.01 | 0.01 | 66 | 1007.5 |
| 20260505023023 | 64 | 19 | 0.0 | 3.5 | 0.00 | 0.01 | 0.01 | 68 | 1007.3 |
| 20260505021525 | 64 | 59 | 0.0 | 1.7 | 0.00 | 0.01 | 0.01 | 70 | 1007.2 |
| 20260505020020 | 65 | 43 | 0.0 | 1.7 | 0.00 | 0.01 | 0.01 | 69 | 1007.2 |
| 20260505014520 | 64 | 49 | 0.0 | 1.7 | 0.00 | 0.01 | 0.01 | 70 | 1007.2 |
| 20260505013018 | 65 | 40 | 0.0 | 0.9 | 0.00 | 0.01 | 0.01 | 71 | 1007.1 |
| 20260505011517 | 68 | 36 | 0.9 | 1.7 | 0.00 | 0.01 | 0.01 | 66 | 1007.0 |
| 20260505010015 | 72 | 29 | 0.0 | 0.9 | 0.00 | 0.01 | 0.01 | 55 | 1007.0 |
| 20260505004514 | 72 | 355 | 1.7 | 6.1 | 0.00 | 0.01 | 0.01 | 54 | 1007.0 |
| 20260505003013 | 73 | 17 | 0.0 | 3.5 | 0.00 | 0.01 | 0.01 | 54 | 1006.8 |
| 20260505001513 | 74 | 42 | 0.0 | 4.3 | 0.00 | 0.01 | 0.01 | 54 | 1006.9 |
| 20260505000010 | 74 | 42 | 0.9 | 6.1 | 0.00 | 0.01 | 0.01 | 52 | 1007.1 |
| 20260504234510 | 75 | 36 | 3.5 | 7.8 | 0.00 | 0.01 | 0.01 | 51 | 1007.2 |
| 20260504233011 | 76 | 39 | 3.5 | 11.3 | 0.00 | 0.01 | 0.01 | 50 | 1007.0 |
| 20260504231508 | 77 | 24 | 5.2 | 9.6 | 0.00 | 0.01 | 0.01 | 49 | 1006.9 |
| 20260504230007 | 77 | 26 | 3.5 | 9.6 | 0.00 | 0.01 | 0.01 | 49 | 1007.0 |
| 20260504224504 | 76 | 20 | 4.3 | 10.4 | 0.00 | 0.01 | 0.01 | 50 | 1007.0 |
| 20260504223003 | 76 | 347 | 4.3 | 6.1 | 0.00 | 0.01 | 0.01 | 50 | 1007.3 |
| 20260504221501 | 77 | 22 | 5.2 | 13.9 | 0.00 | 0.01 | 0.01 | 48 | 1007.5 |
| 20260504220123 | 77 | 11 | 6.1 | 11.3 | 0.00 | 0.01 | 0.01 | 49 | 1007.4 |
| 20260504220001 | 77 | 31 | 5.2 | 11.3 | 0.00 | 0.01 | 0.01 | 49 | 1007.5 |
| 20260504214558 | 77 | 40 | 2.6 | 11.3 | 0.00 | 0.01 | 0.01 | 53 | 1007.5 |
| 20260504213100 | 76 | 32 | 6.1 | 13.9 | 0.00 | 0.01 | 0.01 | 51 | 1007.6 |
| 20260504211554 | 76 | 18 | 5.2 | 12.2 | 0.00 | 0.01 | 0.01 | 54 | 1007.6 |
| 20260504210048 | 75 | 309 | 3.5 | 7.8 | 0.00 | 0.01 | 0.01 | 56 | 1008.0 |
| 20260504204516 | 74 | 296 | 4.3 | 10.4 | 0.00 | 0.01 | 0.01 | 55 | 1008.2 |
| 20260504203013 | 74 | 23 | 5.2 | 15.6 | 0.00 | 0.01 | 0.01 | 54 | 1008.2 |
| 20260504201508 | 73 | 9 | 7.0 | 13.9 | 0.00 | 0.01 | 0.01 | 53 | 1008.4 |
| 20260504200005 | 72 | 55 | 8.7 | 19.1 | 0.00 | 0.01 | 0.01 | 54 | 1008.6 |
| 20260504194503 | 71 | 39 | 5.2 | 10.4 | 0.01 | 0.01 | 0.01 | 58 | 1008.7 |
| 20260504193002 | 69 | 22 | 5.2 | 9.6 | 0.01 | 0.01 | 0.01 | 64 | 1008.9 |
| 20260504191546 | 68 | 15 | 8.7 | 15.6 | 0.01 | 0.01 | 0.01 | 66 | 1009.0 |
| 20260504190031 | 66 | 55 | 4.3 | 7.8 | 0.01 | 0.01 | 0.01 | 70 | 1009.4 |
| 20260504184614 | 67 | 11 | 6.1 | 13.0 | 0.00 | 0.00 | 0.00 | 65 | 1009.5 |
| 20260504183107 | 71 | 52 | 8.7 | 13.0 | 0.00 | 0.00 | 0.00 | 57 | 1010.3 |
| 20260504181554 | 72 | 104 | 7.0 | 10.4 | 0.00 | 0.00 | 0.00 | 54 | 1009.7 |
| 20260504180052 | 71 | 55 | 4.3 | 13.0 | 0.00 | 0.00 | 0.00 | 55 | 1009.5 |
| 20260504174550 | 71 | 69 | 7.0 | 13.0 | 0.00 | 0.00 | 0.00 | 56 | 1009.3 |
| 20260504173049 | 69 | 33 | 4.3 | 17.4 | 0.00 | 0.00 | 0.00 | 60 | 1009.4 |
| 20260504171544 | 69 | 315 | 9.6 | 16.5 | 0.00 | 0.00 | 0.00 | 59 | 1009.4 |
| 20260504081506 | 44 | 201 | 0.0 | 4.3 | 0.00 | 0.00 | 0.00 | 90 | 1012.7 |
| 20260504050005 | 48 | 217 | 0.0 | 3.5 | 0.00 | 0.00 | 0.00 | 89 | 1014.1 |
| 20260504044510 | 48 | 217 | 0.9 | 4.3 | 0.00 | 0.00 | 0.00 | 87 | 1014.3 |
| 20260504043032 | 48 | 217 | 0.0 | 1.7 | 0.00 | 0.00 | 0.00 | 86 | 1014.4 |
| 20260504041530 | 48 | 216 | 0.0 | 3.5 | 0.00 | 0.00 | 0.00 | 85 | 1014.3 |
| 20260504040026 | 49 | 215 | 0.0 | 1.7 | 0.00 | 0.00 | 0.00 | 83 | 1014.6 |
| 20260504034534 | 49 | 216 | 1.7 | 3.5 | 0.00 | 0.00 | 0.00 | 81 | 1014.5 |
| 20260504033023 | 49 | 202 | 1.7 | 4.3 | 0.00 | 0.00 | 0.00 | 76 | 1014.3 |